{"data":{"norad_id":62713,"intl_designator":"2025-009DJ","name":"SATGUS","alt_names":[],"object_type":"PAYLOAD","status":"ACTIVE","operator":null,"country":"US","launch_date":"2025-01-14","launch_site_code":"AFWTR","launch_vehicle":null,"mission":null,"orbit_class":"UNKNOWN","rcs_meters":null,"size_class":null,"mass_kg":null,"dimensions":null,"purposes":[],"wikipedia_slug":null,"has_3d_model":false,"image_url":null,"decayed_at":null,"tle_current":{"epoch":"2026-09-22T17:49:42.456864Z","epoch_age_seconds":125884,"freshness":"FRESH","line1":"1 62713U 25009DJ  26265.74285251  .00003781  00000+0  29078-3 0  9997","line2":"2 62713  97.6891 346.2197 0005273 125.8699 234.3016 15.02298441 92208","mean_motion":15.02298441,"eccentricity":0.0005273,"inclination_deg":97.6891,"raan_deg":346.2197,"arg_perigee_deg":125.8699,"mean_anomaly_deg":234.3016,"bstar":0.00029078,"rev_number":9220,"period_min":95.853124831939,"perigee_km":556.15245727423,"apogee_km":563.46921706331,"semimajor_km":6937.9478371688,"source":"CELESTRAK","updated_at":"2026-09-23T09:00:21.589537Z"}}}